Regional Weather Roundup
Issued by NWS

Home | Current Version | Previous Version | Text Only | Print | Product List | Glossary On
Versions: 1 2 3 4 5 6 7 8 9 10 11 12 13 14 15 16 17 18 19 20 21 22 23 24 25 26 27 28 29 30 31 32 33 34 35 36 37 38 39 40 41 42 43 44 45 46 47 48 49 50
000
ASUS44 KFWD 220510
RWRTX
NORTH TEXAS HOURLY WEATHER ROUNDUP
NATIONAL WEATHER SERVICE FORT WORTH TX
1200 AM CDT WED OCT 22 2014

NOTE: "FAIR" INDICATES FEW OR NO CLOUDS BELOW 12,000 FEET WITH NO
SIGNIFICANT WEATHER AND/OR OBSTRUCTIONS TO VISIBILITY.

TXZ118-119-220600-
DALLAS/FORT WORTH METROPLEX

CITY           SKY/WX    TMP DP  RH WIND       PRES   REMARKS
DFW AIRPORT    CLEAR     67  58  72 SE5       30.07R
DALLAS LOVE    PTCLDY    69  60  73 SE5       30.07S
FTW MEACHAM    CLEAR     67  58  72 SE7       30.06S
DAL-EXECUTIVE  CLEAR     65  58  78 SE3       30.07R
FTW-ALLIANCE   PTCLDY    64  57  78 CALM      30.07S
FTW-NAS-JRB    CLEAR     70  56  61 S3        30.11S
FTW-SPINKS     CLEAR     60  56  87 CALM      30.09S
ARLINGTON      CLEAR     60  56  86 CALM      30.07S
GRAND PRAIRIE  CLEAR     68  59  73 CALM      30.08S
ADDISON        CLEAR     68  62  82 CALM      30.09S
MESQUITE       CLEAR     64  59  85 CALM      30.07S
LANCASTER      CLEAR     60  54  80 CALM      30.08S
$$

TXZ091>094-102>105-117-120-121-131>134-220600-
NORTH CENTRAL TEXAS

CITY           SKY/WX    TMP DP  RH WIND       PRES   REMARKS
SHRMAN/DENISON CLEAR     68  62  81 SE7       30.08S
GAINESVILLE    CLEAR     63  57  82 CALM      30.10S
BOWIE          CLEAR     61  56  82 SE5       30.08S
BRIDGEPORT     CLEAR     59  54  83 CALM      30.09F
DECATUR        CLEAR     64  55  72 SE3       30.08S
DENTON         CLEAR     64  59  83 SE3       30.07S
MCKINNEY       CLEAR     63  59  87 CALM      30.07S
GREENVILLE     CLEAR     59  57  94 CALM      30.07S FOG
ROCKWALL       CLEAR     67  61  80 SE7       30.06S
TERRELL        CLEAR     63  60  90 CALM      30.07F
WAXAHACHIE     CLEAR     64  58  81 CALM      30.09S
CLEBURNE       PTCLDY    66  59  77 CALM      30.09S
GRANBURY       PTCLDY    62  54  75 CALM      30.09S
$$

TXZ083>090-098>101-113>116-127>130-139>142-154-155-220600-
WESTERN NORTH TEXAS

CITY           SKY/WX    TMP DP  RH WIND       PRES   REMARKS
WICHITA FALLS  CLEAR     61  51  70 S9        30.06S
WF-KICKAPOO    CLEAR     62  52  70 SE6       30.07F
VERNON         CLEAR     64  52  63 SE8       30.06S
ABILENE        PTCLDY    65  50  58 SE7       30.08S
ABILENE-DYESS  PTCLDY    66  51  57 SE10      30.07R
BRECKENRIDGE   MOCLDY    66  49  54 SE8       30.06F
GRAHAM         PTCLDY    64  53  65 SE5       30.06S
MINERAL WELLS  PTCLDY    62  53  72 SE7       30.06F
STEPHENVILLE   PTCLDY    63  49  59 CALM      30.11F
COMANCHE       MOCLDY    63  52  68 SE5       30.09S
BROWNWOOD      MOCLDY    64  48  55 SE5       30.08S
COLEMAN        MOCLDY    67  52  57 S8        30.08S
BRADY          CLEAR     64  50  59 SE5       30.08S
$$

TXZ143>147-156>162-174-175-220600-
CENTRAL TEXAS

CITY           SKY/WX    TMP DP  RH WIND       PRES   REMARKS
WACO           PTCLDY    65  58  78 CALM      30.07S
WACO-MCGREGOR  PTCLDY    63  52  67 S3        30.09R
HILLSBORO      PTCLDY    67  58  71 E6        30.07F
CORSICANA      CLEAR     67  61  81 SE3       30.07F
MEXIA          PTCLDY    65  60  84 E3        30.06S
HEARNE         PTCLDY    65  60  82 CALM      30.06F
CAMERON        PTCLDY    65  59  81 SE3       30.06S
TEMPLE         PTCLDY    64  54  68 E6        30.06S
KILLEEN        MOCLDY    70  54  56 E7        30.06F
KILLEEN-SKYLRK MOCLDY    63  50  63 CALM      30.06S
FORT HOOD      MOCLDY    66  57  72 CALM      30.07S
GATESVILLE     MOCLDY    61  54  77 CALM      30.09F
HAMILTON       PTCLDY    63  49  60 S7        30.09S
LAMPASAS       CLOUDY    63  51  65 CALM      30.06F
$$

TXZ095>097-106>112-122>126-135>138-148>153-164>167-220600-
EAST TEXAS

CITY           SKY/WX    TMP DP  RH WIND       PRES   REMARKS
PARIS          CLEAR     64  55  72 CALM      30.09S
SULPHUR SPRNGS CLEAR     63  61  95 CALM      30.10R
MOUNT PLEASANT CLEAR     61  61  99 NE3       30.09S
MINEOLA        CLEAR     61  61 100 CALM      30.08S FOG
TYLER          CLEAR     66  61  84 CALM      30.07S
LONGVIEW       CLEAR     63  60  90 CALM      30.06S
MARSHALL       CLEAR     61  59  93 CALM      30.09S
ATHENS         CLEAR     59  59 100 CALM      30.06F
PALESTINE      CLEAR     65  62  91 CALM      30.08S
JACKSONVILLE   CLEAR     67  62  83 CALM      30.09S
HENDERSON      CLEAR     60  60 100 CALM      30.08S FOG
NACOGDOCHES    CLEAR     59  55  88 CALM      30.07S
LUFKIN         CLEAR     64  60  87 CALM      30.06S FOG
$$

SUPPLEMENTAL OBSERVATIONS (CENTRAL)

CITY           SKY/WX    TMP DP  RH WIND       PRES   REMARKS
PAT MAYSE LAKE   N/A     66  63  88 SE2         N/A
PALESTINE        N/A     61  59  94 CALM        N/A
MCGREGOR         N/A     66  57  72 SE3         N/A
TEMPLE           N/A     68  59  73 E6          N/A
$$

SUPPLEMENTAL OBSERVATIONS (WEST)

CITY           SKY/WX    TMP DP  RH WIND       PRES   REMARKS
MILLERS CREEK    N/A     66  48  52 S9          N/A
POSSUM KINGDOM   N/A     64  48  55 S5          N/A
GRANBURY         N/A     61  52  72 N1          N/A
HAMBY            N/A     64  48  55 SE6         N/A
IVIE RESERVOIR   N/A     66  52  59 E8          N/A
COLORADO BEND    N/A     64  46  52 SE3         N/A
$$

SUPPLEMENTAL OBSERVATIONS (EAST)

CITY           SKY/WX    TMP DP  RH WIND       PRES   REMARKS
CLARKSVILLE      N/A     63  59  88 CALM        N/A
TEXARKANA        N/A     57  55  94 CALM        N/A
LINDEN           N/A     61  57  88 CALM        N/A
GILMER           N/A     61  57  88 CALM        N/A
HENDERSON        N/A     61  57  88 CALM        N/A
LUFKIN           N/A     61  57  88 MISG        N/A
N SABINE NF      N/A     57  54  88 MISG        N/A
$$

SUPPLEMENTAL OBSERVATIONS ARE A COLLECTION OF AUTOMATED INSTRUMENTS
THAT ARE MAINTAINED BY A VARIETY OF FEDERAL AND STATE AGENCIES.
CERTAIN ELEMENTS...SUCH AS HUMIDITY VALUES AND SUSTAINED WIND
SPEEDS...MAY BE APPROXIMATED.




USA.gov is the U.S. government's official web portal to all federal, state and local government web resources and services.